Flag for Russia Weather past 2 weeks in Yuzhno-Sakhalinsk, Russia

Now
16 °F

Snow flurries. Ice fog.


Feels Like: 10 °F
Forecast: 13 / 21 °F
Wind: 3 mph from Northwest

Location: Yuzhno Airport-Sakhalinsk

Current Time: Dec 23, 2014 at 8:49:14 AM

Latest Report: Dec 23, 2014 at 8:30 AM


Visibility: 3 mi

Pressure: 29.45 "Hg

Humidity: 93%

Dew point: 14 °F

Location of Yuzhno-SakhalinskLocation

Historic Weather in Yuzhno-Sakhalinsk — Graph

°F

Yuzhno-Sakhalinsk temperature yesterday

Maximum temperature yesterday: 14 °F (at 12:00 PM)
Minimum temperature yesterday: 10 °F (at 4:00 AM)
Average temperature yesterday: 12 °F

Past Weeks' High & Low Weather Summary

 TemperatureHumidityPressure
High36 °F (Dec 20, 7:30 PM)100% (Dec 11, 1:30 PM)30.24 "Hg (Dec 11, 1:30 PM)
Low-6 °F (Dec 16, 1:00 AM)50% (Dec 8, 12:30 PM)29.03 "Hg (Dec 17, 2:00 PM)
Average19 °F82%29.76 "Hg
* Reported Dec 8 7:00 AM — Dec 23 7:30 AM, Yuzhno-Sakhalinsk, Weather by CustomWeather, © 2014

Note: Actual official high and low records may vary slightly from our data, if they occured in-between our weather recording intervals... More about our weather records

Advertising

Yuzhno-Sakhalinsk weather history for previous 24 hours

 ConditionsComfort  
Time TempWeatherWind HumidityBarometerVisibility
7:30 AM
Dec 23
16 °FSnow flurries. Passing clouds.10 mph93%29.42 "Hg3 mi
7:00 AM16 °FSnow showers. Passing clouds.6 mph93%29.42 "Hg3 mi
6:30 AM16 °FSnow showers. Passing clouds.6 mph93%29.39 "Hg2 mi
6:00 AM16 °FSnow showers. Passing clouds.6 mph93%29.39 "Hg2 mi
5:30 AM16 °FSnow flurries. Passing clouds.8 mph86%29.36 "Hg4 mi
5:00 AM16 °FSnow flurries. Passing clouds.10 mph86%29.36 "Hg4 mi
4:30 AM14 °FSnow showers. Ice fog.8 mph92%29.33 "Hg1 mi
4:00 AM12 °FSnow showers. Ice fog.6 mph92%29.33 "Hg1 mi
3:30 AM12 °FSnow showers. Ice fog.3 mph92%29.33 "Hg1 mi
3:00 AM10 °FSnow showers. Ice fog.6 mph92%29.33 "Hg1 mi
2:30 AM10 °FSnow showers. Ice fog.3 mph92%29.33 "Hg1 mi
2:00 AM10 °FSnow flurries. Passing clouds.6 mph92%29.30 "Hg4 mi
1:30 AM10 °FSnow flurries. Passing clouds.8 mph92%29.30 "Hg3 mi
1:00 AM9 °FSnow showers. Passing clouds.6 mph85%29.30 "Hg2 mi
12:30 AM10 °FSnow flurries. Passing clouds.3 mph92%29.27 "Hg3 mi
12:00 AM10 °FSnow showers. Ice fog.3 mph92%29.27 "Hg1 mi
11:30 PM
Dec 22
10 °FSnow flurries. Passing clouds.3 mph85%29.27 "Hg3 mi
11:00 PM12 °FSnow flurries. Passing clouds.6 mph85%29.27 "Hg3 mi
10:30 PM12 °FSnow showers. Ice fog.6 mph85%29.27 "Hg1 mi
10:00 PM12 °FSnow flurries. Passing clouds.6 mph85%29.27 "Hg3 mi
9:30 PM12 °FSnow flurries. Passing clouds.6 mph85%29.24 "Hg5 mi
9:00 PM12 °FSnow flurries. Passing clouds.6 mph92%29.27 "Hg5 mi
8:30 PM12 °FSnow flurries. Passing clouds.6 mph92%29.24 "Hg3 mi
8:00 PM12 °FSnow showers. Ice fog.6 mph92%29.24 "Hg1 mi
7:30 PM12 °FSnow flurries. Passing clouds.6 mph85%29.24 "Hg3 mi
7:00 PM12 °FSnow flurries. Passing clouds.6 mph92%29.24 "Hg3 mi
6:30 PM12 °FSnow flurries. Passing clouds.8 mph85%29.24 "Hg4 mi
6:00 PM12 °FSnow showers. Passing clouds.6 mph92%29.24 "Hg2 mi
5:30 PM12 °FSnow showers. Ice fog.6 mph92%29.24 "Hg1 mi
5:00 PM12 °FSnow showers. Ice fog.6 mph92%29.24 "Hg1 mi
4:30 PM12 °FHeavy snow. Ice fog.6 mph92%29.24 "Hg1 mi
4:00 PM12 °FHeavy snow. Ice fog.8 mph92%29.21 "Hg1 mi
3:30 PM12 °FHeavy snow. Ice fog.13 mph92%29.21 "Hg1 mi
3:00 PM14 °FSnow showers. Ice fog.13 mph67%29.21 "Hg1 mi
2:30 PM14 °FSnow flurries. Scattered clouds.15 mph67%29.18 "HgN/A
1:30 PM14 °FScattered clouds.10 mph67%29.21 "HgN/A
1:00 PM12 °FScattered clouds.13 mph73%29.21 "HgN/A
12:30 PM12 °FSnow flurries. Scattered clouds.17 mph73%29.21 "HgN/A
12:00 PM14 °FSnow flurries. Scattered clouds.17 mph79%29.24 "Hg4 mi
11:30 AM12 °FSnow flurries. Scattered clouds.10 mph85%29.24 "Hg3 mi
11:00 AM12 °FSnow flurries. Scattered clouds.10 mph73%29.24 "HgN/A
10:30 AM12 °FScattered clouds.17 mph73%29.27 "HgN/A
10:00 AM12 °FSnow flurries. Scattered clouds.17 mph79%29.27 "Hg5 mi
9:30 AM12 °FSnow showers. Partly sunny.10 mph85%29.27 "Hg2 mi
9:00 AM10 °FSnow showers. Ice fog.13 mph92%29.27 "Hg1 mi
8:00 AM10 °FSnow flurries. Passing clouds.10 mph85%29.30 "Hg3 mi
Weather by CustomWeather, © 2014

See weather overviewHow to use our weather pages